TimeCDT,TemperatureF,Dew PointF,Humidity,Sea Level PressureIn,VisibilityMPH,Wind Direction,Wind SpeedMPH,Gust SpeedMPH,PrecipitationIn,Events,Conditions,WindDirDegrees,DateUTC
12:15 AM,68.4,68.4,100,30.18,7.0,Calm,Calm,-,N/A,,Clear,0,2012-10-12 05:15:00
12:35 AM,66.0,66.0,100,30.18,0.2,Calm,Calm,-,N/A,Fog,Fog,0,2012-10-12 05:35:00
12:55 AM,65.8,65.8,100,30.18,2.0,Calm,Calm,-,N/A,,Clear,0,2012-10-12 05:55:00
1:15 AM,66.7,66.7,100,30.18,4.0,Calm,Calm,-,N/A,,Clear,0,2012-10-12 06:15:00
1:35 AM,66.6,66.6,100,30.17,3.0,Calm,Calm,-,N/A,,Clear,0,2012-10-12 06:35:00
1:55 AM,64.8,64.8,100,30.18,0.2,Calm,Calm,-,N/A,Fog,Fog,0,2012-10-12 06:55:00
2:15 AM,65.3,65.3,100,30.17,0.2,Calm,Calm,-,N/A,Fog,Fog,0,2012-10-12 07:15:00
2:35 AM,63.3,63.3,100,30.17,0.2,Calm,Calm,-,N/A,Fog,Fog,0,2012-10-12 07:35:00
2:55 AM,62.4,62.4,100,30.16,0.2,Calm,Calm,-,N/A,Fog,Fog,0,2012-10-12 07:55:00
3:15 AM,62.1,62.1,100,30.17,0.5,Calm,Calm,-,N/A,Fog,Fog,0,2012-10-12 08:15:00
3:35 AM,63.1,63.1,100,30.16,0.8,East,3.5,-,N/A,,Mist,80,2012-10-12 08:35:00
3:55 AM,62.8,62.8,100,30.16,0.5,Calm,Calm,-,N/A,Fog,Fog,0,2012-10-12 08:55:00
4:15 AM,62.8,62.8,100,30.16,0.2,Calm,Calm,-,N/A,Fog,Fog,0,2012-10-12 09:15:00
4:35 AM,63.0,63.0,100,30.16,0.5,ENE,3.5,-,N/A,Fog,Fog,60,2012-10-12 09:35:00
4:55 AM,64.0,64.0,100,30.16,1.5,Calm,Calm,-,N/A,,Scattered Clouds,0,2012-10-12 09:55:00
5:15 AM,61.7,61.7,100,30.16,0.2,Calm,Calm,-,N/A,Fog,Fog,0,2012-10-12 10:15:00
5:35 AM,60.1,60.1,100,30.17,0.2,Calm,Calm,-,N/A,Fog,Fog,0,2012-10-12 10:35:00
5:55 AM,60.6,60.6,100,30.17,0.2,Calm,Calm,-,N/A,Fog,Fog,0,2012-10-12 10:55:00
6:15 AM,61.2,61.2,100,30.17,0.2,Calm,Calm,-,N/A,Fog,Fog,0,2012-10-12 11:15:00
6:35 AM,60.1,60.1,100,30.18,0.5,Calm,Calm,-,N/A,Fog,Fog,0,2012-10-12 11:35:00
6:55 AM,60.6,60.6,100,30.18,0.2,Calm,Calm,-,N/A,Fog,Fog,0,2012-10-12 11:55:00
7:35 AM,60.6,60.6,100,30.20,0.2,Calm,Calm,-,N/A,Fog,Fog,0,2012-10-12 12:35:00
7:55 AM,61.9,61.9,100,30.20,0.5,Calm,Calm,-,N/A,Fog,Fog,0,2012-10-12 12:55:00
8:15 AM,65.5,65.5,100,30.21,3.0,Calm,Calm,-,N/A,,Scattered Clouds,0,2012-10-12 13:15:00
8:35 AM,67.8,67.8,100,30.22,5.0,Calm,Calm,-,N/A,,Clear,0,2012-10-12 13:35:00
9:15 AM,71.2,71.2,100,30.23,10.0,East,3.5,-,N/A,,Clear,100,2012-10-12 14:15:00
9:55 AM,73.4,73.4,100,30.24,10.0,ESE,6.9,-,N/A,,Clear,120,2012-10-12 14:55:00
10:15 AM,77.2,73.0,87,30.23,10.0,SE,5.8,-,N/A,,Clear,130,2012-10-12 15:15:00
10:35 AM,79.7,71.8,77,30.23,10.0,SE,4.6,-,N/A,,Clear,130,2012-10-12 15:35:00
10:55 AM,81.1,71.1,71,30.24,10.0,ESE,6.9,-,N/A,,Clear,120,2012-10-12 15:55:00
11:15 AM,82.2,70.5,68,30.24,10.0,SE,5.8,-,N/A,,Scattered Clouds,130,2012-10-12 16:15:00
11:35 AM,83.1,68.9,62,30.24,10.0,ESE,6.9,-,N/A,,Mostly Cloudy,110,2012-10-12 16:35:00
11:55 AM,82.8,69.1,63,30.24,10.0,ESE,5.8,-,N/A,,Overcast,110,2012-10-12 16:55:00
12:15 PM,83.3,68.9,62,30.23,10.0,SE,4.6,-,N/A,,Overcast,130,2012-10-12 17:15:00
12:55 PM,84.6,68.7,59,30.22,10.0,SSE,5.8,-,N/A,,Mostly Cloudy,150,2012-10-12 17:55:00
1:35 PM,83.5,68.0,59,30.20,10.0,East,3.5,-,N/A,,Scattered Clouds,90,2012-10-12 18:35:00
1:55 PM,83.5,66.7,57,30.19,10.0,Calm,Calm,-,N/A,,Clear,0,2012-10-12 18:55:00
2:15 PM,85.5,67.6,55,30.18,10.0,Calm,Calm,-,N/A,,Scattered Clouds,0,2012-10-12 19:15:00
2:35 PM,86.7,68.0,54,30.18,10.0,SE,4.6,-,N/A,,Scattered Clouds,140,2012-10-12 19:35:00
3:15 PM,86.2,67.8,54,30.17,10.0,SSE,6.9,-,N/A,,Scattered Clouds,150,2012-10-12 20:15:00
3:35 PM,86.9,69.1,55,30.16,10.0,SSE,5.8,-,N/A,,Clear,160,2012-10-12 20:35:00
3:55 PM,86.9,68.4,54,30.16,10.0,SSE,5.8,-,N/A,,Clear,150,2012-10-12 20:55:00
4:15 PM,86.9,69.4,56,30.16,10.0,SSE,6.9,-,N/A,,Clear,160,2012-10-12 21:15:00
4:35 PM,84.9,68.7,58,30.16,10.0,SSE,5.8,-,N/A,,Scattered Clouds,150,2012-10-12 21:35:00
4:55 PM,85.8,68.7,56,30.16,10.0,SSE,9.2,-,N/A,,Scattered Clouds,150,2012-10-12 21:55:00
5:15 PM,84.9,68.4,57,30.16,10.0,SE,4.6,-,N/A,,Scattered Clouds,140,2012-10-12 22:15:00
5:55 PM,82.9,68.4,61,30.16,10.0,SE,4.6,-,N/A,,Clear,140,2012-10-12 22:55:00
6:15 PM,81.1,68.9,66,30.16,10.0,SE,4.6,-,N/A,,Clear,140,2012-10-12 23:15:00
6:35 PM,79.0,68.2,69,30.16,10.0,SSE,4.6,-,N/A,,Clear,150,2012-10-12 23:35:00
6:55 PM,77.5,68.4,73,30.16,10.0,SE,4.6,-,N/A,,Clear,130,2012-10-12 23:55:00
7:15 PM,77.0,69.3,77,30.16,10.0,ESE,3.5,-,N/A,,Clear,120,2012-10-13 00:15:00
7:35 PM,75.9,69.8,81,30.17,10.0,ESE,4.6,-,N/A,,Clear,120,2012-10-13 00:35:00
7:55 PM,75.0,69.8,84,30.17,10.0,Calm,Calm,-,N/A,,Clear,0,2012-10-13 00:55:00
8:15 PM,73.0,70.7,92,30.18,10.0,Calm,Calm,-,N/A,,Clear,0,2012-10-13 01:15:00
8:35 PM,71.8,70.2,95,30.18,10.0,Calm,Calm,-,N/A,,Clear,0,2012-10-13 01:35:00
9:15 PM,74.3,72.7,95,30.18,10.0,SE,3.5,-,N/A,,Mostly Cloudy,130,2012-10-13 02:15:00
9:35 PM,73.8,73.0,98,30.18,10.0,SE,4.6,-,N/A,,Scattered Clouds,140,2012-10-13 02:35:00
9:55 PM,73.9,73.8,99,30.18,10.0,SE,4.6,-,N/A,,Clear,140,2012-10-13 02:55:00
10:15 PM,74.7,74.3,99,30.18,10.0,SE,4.6,-,N/A,,Clear,130,2012-10-13 03:15:00
10:35 PM,74.3,74.1,99,30.19,10.0,Calm,Calm,-,N/A,,Clear,0,2012-10-13 03:35:00